Ana Sayfa
METAR-TAF:

METAR-TAF

Havaalanları :

Harry Clever Field

New Philadelphia, Ohio, Amerika Birleşik Devletleri

Enlem: 40-28-19N, Boylam: 081-25-25W, yükseklik: 272 m

Güncel hava durumu gözlemi

Rapor saat 04:53 UTC de 43 dakika önce yapıldı.
Rüzgar batıdan 3 kt
Sıcaklık -1°C
Nem 74%
Basınç 1029 hPa
Görüş mesafesi: 16.1 km
Açık gökyüzü

METAR: KPHD 040453Z AUTO 26003KT 10SM CLR M01/M05 A3038 RMK AO2 SLP294 T10111050 401331011

Saat: 00:36 (05:36 UTC)


TAF: eksik

4.000'den fazla havaalanı için hava durumu gözlemleri ve tahminleri (METAR ve TAF raporları).

Kullanılabilir istasyonlar harita üzerinde sarı ve kırmızı noktalarla gösterilir.

İstasyonun adını görmek için fareyi noktanın üzerinde gezdirin.

Sonrasında hava gözlem ve tahminlerini görmek için tıklayın.

Haritayı değiştirmek için: yaklaştırmak için siyah artı işaretli yeşil düğmeye ve uzaklaştırmak için de eksi işaretli düğmeye hızla tıklayın; bitişik haritalar için yeşil okları kullanın.


METAR-TAF: